AirNav   ProFlight Series 2 Aviation Headset
 
 847 users online  

3AL6 Town & Country Airpark
Odenville, Alabama, USA

GOING TO ODENVILLE?


FAA INFORMATION EFFECTIVE 18 JUNE 2020

Location

FAA Identifier: 3AL6
Lat/Long: 33-39-24.4000N 086-24-44.9000W
33-39.406667N 086-24.748333W
33.6567778,-86.4124722
(estimated)
Elevation: 730 ft. / 223 m (estimated)
Variation: 01W (1995)
From city: 1 mile E of ODENVILLE, AL
Time zone: UTC -5 (UTC -6 during Standard Time)
Zip code: 35178

Airport Operations

Airport use: Private use. Permission required prior to landing
Activation date: 02/1999
Control tower: no
ARTCC: ATLANTA CENTER
FSS: ANNISTON FLIGHT SERVICE STATION
Attendance: UNATNDD
Wind indicator: yes
Segmented circle: no

Airport Communications

WX AWOS-3P at PLR (10 nm SE): 119.625 ((205) 884-4359)
WX ASOS at BHM (18 nm W): PHONE 205-591-6172
WX AWOS-3PT at ASN (19 nm E): 118.425 (256-362-5847)

Nearby radio navigation aids

VOR radial/distance  VOR name  Freq  Var
TDGr283/19.1TALLADEGA VOR/DME108.8002E
VUZr090/24.4VULCAN VORTAC114.4002E
GADr219/25.2GADSDEN VOR/DME112.3002E

Airport Services

Runway Information

Runway 16/34

Dimensions: 1000 x 50 ft. / 305 x 15 m
Surface: turf, in good condition
RUNWAY 16  RUNWAY 34
Traffic pattern: leftleft
Obstructions: 65 ft. trees, 100 ft. from runway65 ft. trees, 500 ft. from runway

Airport Ownership and Management from official FAA records

Ownership: Privately-owned
Owner: LEWIS R. HOOD
30 AERO DRIVE
ODENVILLE, AL 35120
Phone 205-914-1564
Manager: LEWIS R. HOOD
30 AERO DRIVE
ODENVILLE, AL 35120
Phone 205-914-1564

Airport Operational Statistics

Aircraft based on the field: 2
Single engine airplanes: 2
    

Additional Remarks

FOR CD CTC ATLANTA ARTCC AT 770-210-7692.

Instrument Procedures

There are no published instrument procedures at 3AL6.

Some nearby airports with instrument procedures:

KPLR - St Clair County Airport (10 nm SE)
KBHM - Birmingham-Shuttlesworth International Airport (18 nm W)
KASN - Talladega Municipal Airport (19 nm E)
20A - Robbins Field Airport (19 nm N)
KGAD - Northeast Alabama Regional Airport (25 nm NE)
 
Loc | Ops | Rwys | IFR | FBO | Links
Com | Nav | Svcs | Stats | Notes
Area around 3AL6 (Town & Country Airpark)
 
Road maps at: MapQuest Bing Google
 
Aerial photo
No photo
 
Sectional chart

 
Airport distance calculator
Flying to Town & Country Airpark? Find the distance to fly.

From to 3AL6

Sunrise and sunset
Times for 03-Jul-2020
 Local
(UTC-5)
 Zulu
(UTC)
Morning civil twilight05:1210:12
Sunrise05:4110:41
Sunset19:5900:59
Evening civil twilight20:2801:28

Current date and time
Zulu (UTC)  03-Jul-2020 23:21:13
Local (UTC-5)  03-Jul-2020 18:21:13
 
METAR
KPLR 
10nm SE 
032255Z AUTO 00000KT 10SM CLR 31/26 A2988 RMK A01
KBHM 
18nm W 
032253Z 07006KT 10SM FEW060 BKN250 32/22 A2989 RMK AO2 LTG DSNT S SLP114 T03170217
KASN 
19nm E 
032255Z AUTO 09003KT 10SM CLR 30/22 A2989 RMK AO2 LTG DSNT S T03000223
TAF
KBHM 
18nm W 
031720Z 0318/0418 07005KT P6SM SCT040 BKN050 FM032100 07006KT P6SM VCSH SCT030 BKN060 FM040300 00000KT P6SM FEW020 FEW050 FM041700 VRB04KT P6SM FEW040 SCT060
KASN 
19nm E 
031914Z 0319/0418 10008KT P6SM SHRA VCTS SCT050CB TEMPO 0319/0321 VRB10G25KT TSRA BKN030CB FM032200 VRB03KT P6SM SCT030 BKN110 FM041700 VRB04KT P6SM FEW030 SCT050
NOTAMs
Click for the latest NOTAMs
NOTAMs are issued by the DoD/FAA and will open in a separate window not controlled by AirNav.

 

 
 

Would you like to see your business listed on this page?

 If your business provides an interesting product or service to pilots, flight crews, aircraft, or users of the Town & Country Airpark, you should consider listing it here.  To start the listing process, click on the button below
 
Add a business
 

Other Pages about Town & Country Airpark

Update a link
 
Copyright © AirNav, LLC. All rights reserved. Privacy Policy  Contact